Location: Burgwalden
(48.2830°N, 10.7576°E)
Time: 21:27:10
(UTC+00:00)

NOSS 3-1 (A) - Pass Details

Date: 26 September 2023
Orbit: 677 x 1534 km, 63.4° (Epoch: 03 November)

Event Time Altitude Azimuth Distance (km) Brightness Sun altitude
Rises 04:06:15 0° 318° (NW) 3,854 6.3 -11.1°
Reaches altitude 10° 04:08:42 10° 316° (NW) 3,009 5.7 -10.7°
Maximum altitude 04:16:02 73° 234° (SW) 1,351 4.1 -9.5°
Drops below altitude 10° 04:24:50 10° 152° (SSE) 3,574 6.7 -8.1°
Sets 04:27:58 0° 150° (SSE) 4,613 7.3 -7.6°
